"Pseudo-MPEC" for P21DvP8

Created 2023 Mar 22 14:22:17 UT using Find_Orb

Click here for an explanation of pseudo-MPECs

 
 Astrometry: 
     P21DvP8* C2023 03 16aMX;Ct%y=uAstrometry5redacted;a2o]gZV/,aT-dfclick8mgF52
     P21DvP8  C2023 03 16fbYhere(ikw2?#e\Rwdo[,Pko\SJDq6\e$#'for7+p(((H_m^8H\F52
     P21DvP8  C2023 03 16VqqGb2^o6\gL,*Aexplanation3A]$/?nfd`4q,q3-4yE]5'$0uwF52

Station data:
(F52) Pan-STARRS 2, Haleakala  (N20.707382 W156.255910)  US/Hawaii.
   Observers J. Bulger, T. Dukes, T. Lowe, A. Schultz, M. Willman. Measurers
   K. Chambers, S. Chastel, T. de Boer, L. Denneau, J. Fairlamb, H.
   Flewelling, M. Huber, C.-C. Lin, E. Magnier, Y. Ramanjooloo, R. Wainscoat,
   R. Weryk. 1.8-m Ritchey-Chrétien + CCD.

Orbital elements:  P21DvP8
   Perihelion 2023 Mar 30.95325 +/- 50.8 TT = 22:52:40 (JD 2460034.45325)
Epoch 2023 Mar 16.0 TT = JDT 2460019.5   Earth MOID: 0.3816      AutoNEOCP
M 354.30837105 +/- 35               (J2000 ecliptic)
n   0.38062831 +/- 0.369            Peri.   15.39159 +/- 70
a   1.88568287 +/- 1.22             Node   160.38257 +/- 16
e   0.2754060 +/- 0.273             Incl.   25.00869 +/- 15
P   2.59/945.79d           H 21.97  G  0.15   U 12.1  SR
q 1.36635442 +/- 0.472    Q 2.40501133 +/- 33.7
From 3 observations 2023 Mar. 16 (49.2 min); mean residual 0".05
Residuals in arcseconds: 
230316 F52  .00   .03-    230316 F52  .00   .10+    230316 F52  .00   .06-    

Ephemerides (geocentric):
Date (UTC) HH   RA             Dec           delta  r     elong  mag " sig PA
---- --------  ------------   ------------  ------ ------ -----  --- --------
2023 03 22 14  09 48 58.053   +26 08 26.68  .45520 1.3679 137.7 22.3 918'   9
2023 03 22 15  09 49 00.434   +26 10 17.09  .45539 1.3679 137.7 22.3 921'   9
2023 03 22 16  09 49 02.821   +26 12 07.35  .45558 1.3679 137.6 22.3 923'   9
2023 03 22 17  09 49 05.213   +26 13 57.47  .45576 1.3678 137.6 22.3 926'  10
2023 03 22 18  09 49 07.611   +26 15 47.43  .45595 1.3678 137.5 22.3 928'  10
2023 03 22 19  09 49 10.014   +26 17 37.25  .45614 1.3678 137.5 22.3 930'  10
2023 03 22 20  09 49 12.422   +26 19 26.92  .45633 1.3678 137.4 22.3 932'  10
2023 03 22 21  09 49 14.836   +26 21 16.44  .45652 1.3678 137.4 22.3 934'  10
2023 03 22 22  09 49 17.255   +26 23 05.81  .45671 1.3678 137.3 22.3 936'  10
2023 03 22 23  09 49 19.679   +26 24 55.04  .45690 1.3677 137.3 22.3 938'  10
2023 03 23 00  09 49 22.108   +26 26 44.11  .45709 1.3677 137.2 22.3 939'  10
2023 03 23 01  09 49 24.543   +26 28 33.04  .45728 1.3677 137.2 22.3 941'  11
2023 03 23 02  09 49 26.984   +26 30 21.82  .45748 1.3677 137.1 22.3 943'  11
2023 03 23 03  09 49 29.429   +26 32 10.45  .45767 1.3677 137.1 22.3 944'  11
2023 03 23 04  09 49 31.880   +26 33 58.93  .45786 1.3677 137.0 22.3 946'  11
2023 03 23 05  09 49 34.336   +26 35 47.26  .45805 1.3677 137.0 22.3 947'  11
2023 03 23 06  09 49 36.798   +26 37 35.45  .45824 1.3676 136.9 22.3 949'  11
2023 03 23 07  09 49 39.265   +26 39 23.49  .45844 1.3676 136.9 22.3 950'  11
2023 03 23 08  09 49 41.737   +26 41 11.37  .45863 1.3676 136.9 22.3 951'  11
2023 03 23 09  09 49 44.214   +26 42 59.11  .45882 1.3676 136.8 22.3 953'  11
2023 03 23 10  09 49 46.697   +26 44 46.70  .45902 1.3676 136.8 22.3 954'  11
2023 03 23 11  09 49 49.186   +26 46 34.14  .45921 1.3676 136.7 22.3 956'  11
2023 03 23 12  09 49 51.679   +26 48 21.44  .45941 1.3676 136.7 22.3 957'  11
2023 03 23 13  09 49 54.178   +26 50 08.58  .45960 1.3676 136.6 22.3 958'  11
2023 03 23 14  09 49 56.682   +26 51 55.57  .45979 1.3675 136.6 22.3 960'  11
2023 03 23 15  09 49 59.192   +26 53 42.42  .45999 1.3675 136.5 22.3 961'  11
2023 03 23 16  09 50 01.706   +26 55 29.12  .46018 1.3675 136.5 22.3 963'  11
2023 03 23 17  09 50 04.226   +26 57 15.67  .46038 1.3675 136.4 22.3 965'  11
2023 03 23 18  09 50 06.752   +26 59 02.07  .46058 1.3675 136.4 22.3 966'  11
2023 03 23 19  09 50 09.283   +27 00 48.32  .46077 1.3675 136.3 22.3 968'  11
2023 03 23 20  09 50 11.819   +27 02 34.42  .46097 1.3675 136.3 22.3 970'  11
2023 03 23 21  09 50 14.360   +27 04 20.37  .46116 1.3674 136.2 22.3 972'  11
2023 03 23 22  09 50 16.907   +27 06 06.17  .46136 1.3674 136.2 22.3 974'  10
2023 03 23 23  09 50 19.459   +27 07 51.83  .46156 1.3674 136.1 22.3 976'  10
2023 03 24 00  09 50 22.016   +27 09 37.33  .46176 1.3674 136.1 22.3 978'  10
2023 03 24 01  09 50 24.579   +27 11 22.69  .46195 1.3674 136.0 22.3 981'  10
2023 03 24 02  09 50 27.147   +27 13 07.90  .46215 1.3674 136.0 22.3 983'  10
2023 03 24 03  09 50 29.720   +27 14 52.96  .46235 1.3674 135.9 22.3 986'   9
2023 03 24 04  09 50 32.299   +27 16 37.87  .46255 1.3674 135.9 22.3 990'   9
2023 03 24 05  09 50 34.883   +27 18 22.63  .46275 1.3673 135.8 22.3 993'   9
2023 03 24 06  09 50 37.472   +27 20 07.24  .46295 1.3673 135.8 22.3 997'   9
2023 03 24 07  09 50 40.066   +27 21 51.70  .46315 1.3673 135.8 22.3  17d   8
2023 03 24 08  09 50 42.666   +27 23 36.02  .46335 1.3673 135.7 22.3  17d   8
2023 03 24 09  09 50 45.271   +27 25 20.18  .46355 1.3673 135.7 22.3  17d   8
2023 03 24 10  09 50 47.882   +27 27 04.20  .46375 1.3673 135.6 22.3  17d   7
2023 03 24 11  09 50 50.497   +27 28 48.06  .46395 1.3673 135.6 22.3  17d   7
2023 03 24 12  09 50 53.118   +27 30 31.78  .46415 1.3673 135.5 22.3  17d   6
2023 03 24 13  09 50 55.745   +27 32 15.35  .46435 1.3673 135.5 22.4  17d   6